,,Stat1,,Stat2,,Stat3,,Stat4,,Wind1,,Wind1,
time,status,PR1M_SUM,status,RH1M_AVG,status,SR1M_AVG,status,TA1M_AVG,status,W1dAve1m,status,W1sAve1m,
1999-12-02, 00:01:00,VALID,0,VALID,99.7332,VALID,-0.101885,VALID,18.7683,VALID,171,VALID,0,
1999-12-02, 00:02:00,VALID,0,VALID,99.7116,VALID,-0.0849042,VALID,18.7621,VALID,171,VALID,0,
1999-12-02, 00:03:00,VALID,0,VALID,99.7129,VALID,-0.101885,VALID,18.7515,VALID,170,VALID,0,
1999-12-02, 00:04:00,VALID,0,VALID,99.7027,VALID,-0.0679233,VALID,18.7586,VALID,169,VALID,0,
1999-12-02, 00:05:00,VALID,0,VALID,99.7078,VALID,-0.0679233,VALID,18.7487,VALID,169,VALID,0,
1999-12-02, 00:06:00,VALID,0,VALID,99.7396,VALID,-0.0849042,VALID,18.7651,VALID,169,VALID,0,
1999-12-02, 00:07:00,VALID,0,VALID,99.7294,VALID,-0.0509425,VALID,18.7614,VALID,168,VALID,0,
1999-12-02, 00:08:00,VALID,0,VALID,99.737,VALID,-0.0169808,VALID,18.7637,VALID,168,VALID,0,
1999-12-02, 00:09:00,VALID,0,VALID,99.7383,VALID,0,VALID,18.7505,VALID,172,VALID,0,
1999-12-02, 00:10:00,VALID,0,VALID,99.7345,VALID,0,VALID,18.7438,VALID,172,VALID,0,
1999-12-02, 00:11:00,VALID,0,VALID,99.7269,VALID,0,VALID,18.7376,VALID,172,VALID,0,
1999-12-02, 00:12:00,VALID,0,VALID,99.7637,VALID,0,VALID,18.7441,VALID,172,VALID,0,
1999-12-02, 00:13:00,VALID,0,VALID,99.7866,VALID,-0.0169808,VALID,18.7607,VALID,172,VALID,0,
1999-12-02, 00:14:00,VALID,0,VALID,99.7103,VALID,0,VALID,18.7247,VALID,170,VALID,0,
1999-12-02, 00:15:00,VALID,0,VALID,99.6455,VALID,0.0169808,VALID,18.6794,VALID,163,VALID,0,
1999-12-02, 00:16:00,VALID,0,VALID,99.5908,VALID,0,VALID,18.6344,VALID,161,VALID,0,
1999-12-02, 00:17:00,VALID,0,VALID,99.5984,VALID,0,VALID,18.6113,VALID,159,VALID,0,
1999-12-02, 00:18:00,VALID,0,VALID,99.5844,VALID,0,VALID,18.5859,VALID,158,VALID,0,
1999-12-02, 00:19:00,VALID,0,VALID,99.5743,VALID,-0.0169808,VALID,18.5568,VALID,158,VALID,0,
1999-12-02, 00:20:00,VALID,0,VALID,99.5921,VALID,0,VALID,18.5566,VALID,158,VALID,0,
1999-12-02, 00:21:00,VALID,0,VALID,99.6239,VALID,0,VALID,18.5531,VALID,156,VALID,0,
1999-12-02, 00:22:00,VALID,0,VALID,99.6315,VALID,0,VALID,18.5571,VALID,151,VALID,0,
1999-12-02, 00:23:00,VALID,0,VALID,99.6086,VALID,0,VALID,18.5213,VALID,148,VALID,0,
1999-12-02, 00:24:00,VALID,0,VALID,99.5946,VALID,-0.0169808,VALID,18.4991,VALID,148,VALID,0,
1999-12-02, 00:25:00,VALID,0,VALID,99.6022,VALID,0,VALID,18.4793,VALID,139,VALID,0,
1999-12-02, 00:26:00,VALID,0,VALID,99.6455,VALID,-0.0169808,VALID,18.486,VALID,138,VALID,0,
1999-12-02, 00:27:00,VALID,0,VALID,99.7091,VALID,0,VALID,18.4952,VALID,133,VALID,0,
1999-12-02, 00:28:00,VALID,0,VALID,99.7663,VALID,0,VALID,18.5441,VALID,123,VALID,0,
1999-12-02, 00:29:00,VALID,0,VALID,99.7854,VALID,0,VALID,18.5282,VALID,123,VALID,0,
1999-12-02, 00:30:00,VALID,0,VALID,99.8108,VALID,0,VALID,18.5441,VALID,114,VALID,0,
1999-12-02, 00:31:00,VALID,0,VALID,99.807,VALID,0,VALID,18.5347,VALID,55,VALID,0,
1999-12-02, 00:32:00,VALID,0,VALID,99.9112,VALID,-0.0169808,VALID,18.5926,VALID,51,VALID,0,
1999-12-02, 00:33:00,VALID,0,VALID,99.9519,VALID,0,VALID,18.6185,VALID,96,VALID,0.0910714,
1999-12-02, 00:34:00,VALID,0,VALID,99.9367,VALID,0,VALID,18.6178,VALID,140,VALID,0,
1999-12-02, 00:35:00,VALID,0,VALID,99.9049,VALID,-0.0339617,VALID,18.6249,VALID,136,VALID,0,
1999-12-02, 00:36:00,VALID,0,VALID,99.8667,VALID,0,VALID,18.5891,VALID,112,VALID,0,
1999-12-02, 00:37:00,VALID,0,VALID,99.8616,VALID,-0.0339617,VALID,18.5891,VALID,46,VALID,0,
1999-12-02, 00:38:00,VALID,0,VALID,99.9138,VALID,-0.0339617,VALID,18.5963,VALID,29,VALID,0,
1999-12-02, 00:39:00,VALID,0,VALID,99.9354,VALID,-0.0339617,VALID,18.6021,VALID,88,VALID,0,
1999-12-02, 00:40:00,VALID,0,VALID,99.9723,VALID,0,VALID,18.6349,VALID,103,VALID,0,
1999-12-02, 00:41:00,VALID,0,VALID,99.9797,VALID,0,VALID,18.6411,VALID,129,VALID,0,
1999-12-02, 00:42:00,VALID,0,VALID,99.9822,VALID,-0.0169808,VALID,18.6508,VALID,131,VALID,0,
1999-12-02, 00:43:00,VALID,0,VALID,99.9252,VALID,0.0339617,VALID,18.6021,VALID,124,VALID,0,
1999-12-02, 00:44:00,VALID,0,VALID,99.9341,VALID,-0.0169808,VALID,18.5723,VALID,123,VALID,0,
1999-12-02, 00:45:00,VALID,0,VALID,99.9832,VALID,0,VALID,18.6083,VALID,139,VALID,0,
1999-12-02, 00:46:00,VALID,0,VALID,100,VALID,0.0169808,VALID,18.6279,VALID,162,VALID,0,
1999-12-02, 00:47:00,VALID,0,VALID,100,VALID,0,VALID,18.6337,VALID,168,VALID,0,
1999-12-02, 00:48:00,VALID,0,VALID,100,VALID,-0.0169808,VALID,18.6573,VALID,168,VALID,0,
1999-12-02, 00:49:00,VALID,0,VALID,100,VALID,0,VALID,18.6729,VALID,133,VALID,0,
1999-12-02, 00:50:00,VALID,0,VALID,100,VALID,-0.0169808,VALID,18.6863,VALID,96,VALID,0,
1999-12-02, 00:51:00,VALID,0,VALID,99.9954,VALID,0,VALID,18.6189,VALID,118,VALID,0,
1999-12-02, 00:52:00,VALID,0,VALID,99.9883,VALID,-0.0169808,VALID,18.6058,VALID,120,VALID,0,
1999-12-02, 00:53:00,VALID,0,VALID,99.9954,VALID,0,VALID,18.5926,VALID,126,VALID,0,
1999-12-02, 00:54:00,VALID,0,VALID,99.9957,VALID,0,VALID,18.5799,VALID,116,VALID,0,
1999-12-02, 00:55:00,VALID,0,VALID,99.9957,VALID,-0.0339617,VALID,18.5598,VALID,87,VALID,0,
1999-12-02, 00:56:00,VALID,0,VALID,99.9969,VALID,0,VALID,18.5635,VALID,85,VALID,0,
1999-12-02, 00:57:00,VALID,0,VALID,99.998,VALID,-0.0169808,VALID,18.5571,VALID,100,VALID,0,
1999-12-02, 00:58:00,VALID,0,VALID,99.9954,VALID,0,VALID,18.5471,VALID,95,VALID,0,
1999-12-02, 00:59:00,VALID,0,VALID,99.9931,VALID,0,VALID,18.531,VALID,123,VALID,0,
1999-12-02, 01:00:00,VALID,0,VALID,99.999,VALID,-0.0339617,VALID,18.5543,VALID,132,VALID,0,
1999-12-02, 01:01:00,VALID,0,VALID,100,VALID,-0.0169808,VALID,18.5608,VALID,127,VALID,0,
1999-12-02, 01:02:00,VALID,0,VALID,99.9954,VALID,-0.0509425,VALID,18.5317,VALID,115,VALID,0,
1999-12-02, 01:03:00,VALID,0,VALID,99.9647,VALID,-0.0169808,VALID,18.4956,VALID,84,VALID,0,
1999-12-02, 01:04:00,VALID,0,VALID,99.9868,VALID,0,VALID,18.5118,VALID,82,VALID,0,
1999-12-02, 01:05:00,VALID,0,VALID,100,VALID,-0.0169808,VALID,18.5183,VALID,300,VALID,0,
1999-12-02, 01:06:00,VALID,0,VALID,100,VALID,-0.0169808,VALID,18.5086,VALID,256,VALID,0,
1999-12-02, 01:07:00,VALID,0,VALID,99.9934,VALID,-0.0339617,VALID,18.5023,VALID,244,VALID,0,
1999-12-02, 01:08:00,VALID,0,VALID,99.9621,VALID,-0.0679233,VALID,18.4804,VALID,231,VALID,0,
1999-12-02, 01:09:00,VALID,0,VALID,99.9443,VALID,-0.0339617,VALID,18.4546,VALID,218,VALID,0,
1999-12-02, 01:10:00,VALID,0,VALID,99.9685,VALID,-0.0509425,VALID,18.4446,VALID,201,VALID,0,
1999-12-02, 01:11:00,VALID,0,VALID,99.9608,VALID,-0.0679233,VALID,18.4349,VALID,194,VALID,0,
1999-12-02, 01:12:00,VALID,0,VALID,99.9774,VALID,-0.0339617,VALID,18.4384,VALID,149,VALID,0,
1999-12-02, 01:13:00,VALID,0,VALID,99.9672,VALID,-0.0679233,VALID,18.4257,VALID,139,VALID,0,
1999-12-02, 01:14:00,VALID,0,VALID,99.9519,VALID,-0.0339617,VALID,18.3862,VALID,134,VALID,0,
1999-12-02, 01:15:00,VALID,0,VALID,99.971,VALID,-0.0339617,VALID,18.383,VALID,130,VALID,0,
1999-12-02, 01:16:00,VALID,0,VALID,99.9672,VALID,-0.0339617,VALID,18.3668,VALID,129,VALID,0,
1999-12-02, 01:17:00,VALID,0,VALID,99.9819,VALID,-0.0509425,VALID,18.3904,VALID,104,VALID,0,
1999-12-02, 01:18:00,VALID,0,VALID,99.9758,VALID,-0.0169808,VALID,18.3668,VALID,101,VALID,0,
1999-12-02, 01:19:00,VALID,0,VALID,99.971,VALID,-0.0169808,VALID,18.3544,VALID,100,VALID,0,
1999-12-02, 01:20:00,VALID,0,VALID,99.9896,VALID,0,VALID,18.3606,VALID,107,VALID,0,
1999-12-02, 01:21:00,VALID,0,VALID,100,VALID,0,VALID,18.3802,VALID,97,VALID,0,
1999-12-02, 01:22:00,VALID,0,VALID,100,VALID,-0.0169808,VALID,18.4054,VALID,100,VALID,0,
1999-12-02, 01:23:00,VALID,0,VALID,100,VALID,0.101885,VALID,18.4174,VALID,100,VALID,0,
1999-12-02, 01:24:00,VALID,0,VALID,100,VALID,0.0849042,VALID,18.4112,VALID,99,VALID,0,
1999-12-02, 01:25:00,VALID,0,VALID,100,VALID,0.0679233,VALID,18.4017,VALID,96,VALID,0,
1999-12-02, 01:26:00,VALID,0,VALID,100,VALID,0.0679233,VALID,18.4114,VALID,41,VALID,0,
1999-12-02, 01:27:00,VALID,0,VALID,100,VALID,0.0339617,VALID,18.4566,VALID,6,VALID,0,
1999-12-02, 01:28:00,VALID,0,VALID,100,VALID,0.0849042,VALID,18.5051,VALID,9,VALID,0,
1999-12-02, 01:29:00,VALID,0,VALID,100,VALID,0.0679233,VALID,18.5307,VALID,357,VALID,0,
1999-12-02, 01:30:00,VALID,0,VALID,100,VALID,0.0509425,VALID,18.5367,VALID,317,VALID,0,
1999-12-02, 01:31:00,VALID,0,VALID,100,VALID,0.0679233,VALID,18.5564,VALID,327,VALID,0,
1999-12-02, 01:32:00,VALID,0,VALID,100,VALID,0.0509425,VALID,18.5598,VALID,309,VALID,0,
1999-12-02, 01:33:00,VALID,0,VALID,100,VALID,0.0509425,VALID,18.5991,VALID,293,VALID,0,
1999-12-02, 01:34:00,VALID,0,VALID,100,VALID,0.0509425,VALID,18.6053,VALID,293,VALID,0,
1999-12-02, 01:35:00,VALID,0,VALID,100,VALID,0,VALID,18.5794,VALID,293,VALID,0,
1999-12-02, 01:36:00,VALID,0,VALID,100,VALID,0.0509425,VALID,18.579,VALID,293,VALID,0,
1999-12-02, 01:37:00,VALID,0,VALID,100,VALID,0.0849042,VALID,18.5954,VALID,291,VALID,0,
1999-12-02, 01:38:00,VALID,0,VALID,100,VALID,0,VALID,18.6284,VALID,271,VALID,0,
1999-12-02, 01:39:00,VALID,0,VALID,100,VALID,0.0679233,VALID,18.6379,VALID,271,VALID,0,
1999-12-02, 01:40:00,VALID,0,VALID,100,VALID,0.0509425,VALID,18.6148,VALID,271,VALID,0,
1999-12-02, 01:41:00,VALID,0,VALID,100,VALID,0.0849042,VALID,18.615,VALID,271,VALID,0,
1999-12-02, 01:42:00,VALID,0,VALID,100,VALID,0.0169808,VALID,18.5861,VALID,271,VALID,0,
1999-12-02, 01:43:00,VALID,0,VALID,100,VALID,0.0339617,VALID,18.5728,VALID,271,VALID,0,
1999-12-02, 01:44:00,VALID,0,VALID,100,VALID,0.0339617,VALID,18.5757,VALID,273,VALID,0,
1999-12-02, 01:45:00,VALID,0,VALID,100,VALID,0.0339617,VALID,18.5728,VALID,274,VALID,0,
1999-12-02, 01:46:00,VALID,0,VALID,100,VALID,0.0339617,VALID,18.5894,VALID,274,VALID,0,
1999-12-02, 01:47:00,VALID,0,VALID,100,VALID,0.0339617,VALID,18.6053,VALID,274,VALID,0,
1999-12-02, 01:48:00,VALID,0,VALID,100,VALID,0.0509425,VALID,18.5988,VALID,274,VALID,0,
1999-12-02, 01:49:00,VALID,0,VALID,99.9967,VALID,0.0169808,VALID,18.5896,VALID,274,VALID,0,
1999-12-02, 01:50:00,VALID,0,VALID,99.9873,VALID,0.0169808,VALID,18.5963,VALID,274,VALID,0,
1999-12-02, 01:51:00,VALID,0,VALID,99.9163,VALID,0,VALID,18.5705,VALID,273,VALID,0,
1999-12-02, 01:52:00,VALID,0,VALID,99.8833,VALID,0.0339617,VALID,18.521,VALID,273,VALID,0,
1999-12-02, 01:53:00,VALID,0,VALID,99.9176,VALID,0.0339617,VALID,18.5083,VALID,273,VALID,0,
1999-12-02, 01:54:00,VALID,0,VALID,99.9367,VALID,0.0509425,VALID,18.5113,VALID,272,VALID,0,
1999-12-02, 01:55:00,VALID,0,VALID,99.9392,VALID,0.0509425,VALID,18.4952,VALID,271,VALID,0,
1999-12-02, 01:56:00,VALID,0,VALID,99.9087,VALID,0.0509425,VALID,18.4885,VALID,271,VALID,0,
1999-12-02, 01:57:00,VALID,0,VALID,99.8985,VALID,0.0849042,VALID,18.4723,VALID,271,VALID,0,
1999-12-02, 01:58:00,VALID,0,VALID,99.9227,VALID,0.0339617,VALID,18.4795,VALID,271,VALID,0,
1999-12-02, 01:59:00,VALID,0,VALID,99.9138,VALID,0.0339617,VALID,18.4763,VALID,271,VALID,0,
1999-12-02, 02:00:00,VALID,0,VALID,99.957,VALID,0.0169808,VALID,18.476,VALID,270,VALID,0,
1999-12-02, 02:01:00,VALID,0,VALID,99.9405,VALID,0.0509425,VALID,18.4857,VALID,134,VALID,0,
1999-12-02, 02:02:00,VALID,0,VALID,99.9049,VALID,0.0679233,VALID,18.4636,VALID,108,VALID,0,
1999-12-02, 02:03:00,VALID,0,VALID,99.8973,VALID,0.0339617,VALID,18.4437,VALID,109,VALID,0,
1999-12-02, 02:04:00,VALID,0,VALID,99.9418,VALID,0.0679233,VALID,18.473,VALID,113,VALID,0,
1999-12-02, 02:05:01,VALID,0,VALID,99.9786,VALID,0.0849042,VALID,18.4885,VALID,113,VALID,0,
1999-12-02, 02:06:00,VALID,0,VALID,99.9774,VALID,0.0509425,VALID,18.4949,VALID,113,VALID,0,
1999-12-02, 02:07:00,VALID,0,VALID,99.9761,VALID,0.0509425,VALID,18.5155,VALID,113,VALID,0,
1999-12-02, 02:08:00,VALID,0,VALID,99.9685,VALID,0,VALID,18.5086,VALID,113,VALID,0,
1999-12-02, 02:09:00,VALID,0,VALID,99.9201,VALID,0.0169808,VALID,18.483,VALID,108,VALID,0,
1999-12-02, 02:10:00,VALID,0,VALID,99.8833,VALID,0.0509425,VALID,18.44,VALID,97,VALID,0,
1999-12-02, 02:11:00,VALID,0,VALID,99.9087,VALID,0.0509425,VALID,18.4502,VALID,87,VALID,0,
1999-12-02, 02:12:00,VALID,0,VALID,99.9468,VALID,0.0339617,VALID,18.4825,VALID,89,VALID,0.168527,
1999-12-02, 02:13:00,VALID,0,VALID,99.986,VALID,0.0169808,VALID,18.5183,VALID,82,VALID,1.09732,
1999-12-02, 02:14:00,VALID,0,VALID,100,VALID,0,VALID,18.5601,VALID,87,VALID,1.11144,
1999-12-02, 02:15:00,VALID,0,VALID,100,VALID,0.0169808,VALID,18.6058,VALID,93,VALID,0.990921,
1999-12-02, 02:16:01,VALID,0,VALID,99.9957,VALID,0,VALID,18.6249,VALID,80,VALID,0.852679,
1999-12-02, 02:17:00,VALID,0,VALID,99.9723,VALID,0.0169808,VALID,18.6508,VALID,89,VALID,0.860268,
1999-12-02, 02:18:00,VALID,0,VALID,99.9494,VALID,0,VALID,18.6737,VALID,97,VALID,0.7608,
1999-12-02, 02:19:00,VALID,0,VALID,99.9265,VALID,0,VALID,18.6898,VALID,72,VALID,0.724029,
1999-12-02, 02:20:00,VALID,0,VALID,99.9189,VALID,0,VALID,18.7286,VALID,80,VALID,0.9375,
1999-12-02, 02:21:00,VALID,0,VALID,99.9214,VALID,0,VALID,18.7704,VALID,72,VALID,0.813839,
1999-12-02, 02:22:00,VALID,0,VALID,99.8769,VALID,0.0169808,VALID,18.7801,VALID,96,VALID,0.506204,
1999-12-02, 02:23:00,VALID,0,VALID,99.8299,VALID,0.0339617,VALID,18.7928,VALID,61,VALID,0.65076,
1999-12-02, 02:24:00,VALID,0,VALID,99.7777,VALID,0,VALID,18.8027,VALID,90,VALID,0.741518,
1999-12-02, 02:25:00,VALID,0,VALID,99.7459,VALID,0.0169808,VALID,18.8512,VALID,76,VALID,0.79933,
1999-12-02, 02:26:00,VALID,0,VALID,99.6506,VALID,0,VALID,18.8609,VALID,103,VALID,0.811121,
1999-12-02, 02:27:01,VALID,0,VALID,99.5298,VALID,0.0169808,VALID,18.8378,VALID,88,VALID,0.697846,
1999-12-02, 02:28:00,VALID,0,VALID,99.4509,VALID,0.0169808,VALID,18.8383,VALID,94,VALID,0.509375,
1999-12-02, 02:29:00,VALID,0,VALID,99.3759,VALID,0.0169808,VALID,18.8226,VALID,88,VALID,0.742411,
1999-12-02, 02:30:00,VALID,0,VALID,99.3365,VALID,0.0169808,VALID,18.7992,VALID,85,VALID,0.701287,
1999-12-02, 02:31:00,VALID,0,VALID,99.3085,VALID,0,VALID,18.7833,VALID,86,VALID,0.745144,
1999-12-02, 02:32:00,VALID,0,VALID,99.2831,VALID,0,VALID,18.7674,VALID,80,VALID,0.855804,
1999-12-02, 02:33:00,VALID,0,VALID,99.3187,VALID,0.0169808,VALID,18.7577,VALID,87,VALID,1.06384,
1999-12-02, 02:34:00,VALID,0,VALID,99.3301,VALID,0,VALID,18.7577,VALID,96,VALID,1.04044,
1999-12-02, 02:35:00,VALID,0,VALID,99.3377,VALID,0,VALID,18.7512,VALID,94,VALID,0.962416,
1999-12-02, 02:36:00,VALID,0,VALID,99.3416,VALID,0,VALID,18.7512,VALID,87,VALID,0.83058,
1999-12-02, 02:37:00,VALID,0,VALID,99.3416,VALID,0,VALID,18.7378,VALID,81,VALID,1.12478,
1999-12-02, 02:38:01,VALID,0,VALID,99.3848,VALID,-0.101885,VALID,18.7621,VALID,80,VALID,1.18543,
1999-12-02, 02:39:00,VALID,0,VALID,99.4064,VALID,-0.0849042,VALID,18.7813,VALID,89,VALID,1.1799,
1999-12-02, 02:40:00,VALID,0,VALID,99.3466,VALID,-0.101885,VALID,18.8134,VALID,85,VALID,1.08847,
1999-12-02, 02:41:00,VALID,0,VALID,99.3288,VALID,-0.101885,VALID,18.8233,VALID,82,VALID,1.04933,
1999-12-02, 02:42:00,VALID,0,VALID,99.3212,VALID,-0.0679233,VALID,18.8494,VALID,86,VALID,0.981388,
1999-12-02, 02:43:00,VALID,0,VALID,99.2615,VALID,-0.0849042,VALID,18.8392,VALID,86,VALID,1.0266,
1999-12-02, 02:44:00,VALID,0,VALID,99.2131,VALID,-0.0849042,VALID,18.8459,VALID,82,VALID,1.19487,
1999-12-02, 02:45:00,VALID,0,VALID,99.1801,VALID,-0.0849042,VALID,18.8427,VALID,86,VALID,1.23817,
1999-12-02, 02:46:00,VALID,0,VALID,99.1661,VALID,-0.0849042,VALID,18.8392,VALID,74,VALID,0.970818,
1999-12-02, 02:47:00,VALID,0,VALID,99.1915,VALID,-0.0849042,VALID,18.8559,VALID,86,VALID,0.989443,
1999-12-02, 02:48:00,VALID,0,VALID,99.2055,VALID,-0.101885,VALID,18.8556,VALID,79,VALID,1.04107,
1999-12-02, 02:49:01,VALID,0,VALID,99.2195,VALID,-0.0849042,VALID,18.8489,VALID,89,VALID,0.959152,
1999-12-02, 02:50:00,VALID,0,VALID,99.208,VALID,-0.0849042,VALID,18.8658,VALID,85,VALID,0.899357,
1999-12-02, 02:51:00,VALID,0,VALID,99.2208,VALID,-0.0849042,VALID,18.8551,VALID,85,VALID,0.873944,
1999-12-02, 02:52:00,VALID,0,VALID,99.2309,VALID,-0.0849042,VALID,18.8618,VALID,94,VALID,0.941518,
1999-12-02, 02:53:00,VALID,0,VALID,99.2233,VALID,0.0339617,VALID,18.8604,VALID,88,VALID,0.947321,
1999-12-02, 02:54:00,VALID,0,VALID,99.2004,VALID,0.0679233,VALID,18.8572,VALID,86,VALID,0.70795,
1999-12-02, 02:55:00,VALID,0,VALID,99.2144,VALID,0.0169808,VALID,18.8544,VALID,95,VALID,0.945735,
1999-12-02, 02:56:00,VALID,0,VALID,99.222,VALID,0,VALID,18.8641,VALID,92,VALID,1.53594,
1999-12-02, 02:57:00,VALID,0,VALID,99.2195,VALID,0,VALID,18.8666,VALID,85,VALID,1.30982,
1999-12-02, 02:58:00,VALID,0,VALID,99.1712,VALID,0.0339617,VALID,18.8833,VALID,76,VALID,1.0062,
1999-12-02, 02:59:00,VALID,0,VALID,99.161,VALID,0,VALID,18.8927,VALID,74,VALID,1.18856,
1999-12-02, 03:00:01,VALID,0,VALID,99.1406,VALID,0.0169808,VALID,18.899,VALID,85,VALID,1.19978,
1999-12-02, 03:01:00,VALID,0,VALID,99.0822,VALID,0,VALID,18.9027,VALID,91,VALID,1.15804,
1999-12-02, 03:02:00,VALID,0,VALID,99.0466,VALID,0.0169808,VALID,18.899,VALID,86,VALID,1.01172,
1999-12-02, 03:03:00,VALID,0,VALID,99.0415,VALID,0,VALID,18.8957,VALID,84,VALID,1.04688,
1999-12-02, 03:04:00,VALID,0,VALID,99.058,VALID,0.0169808,VALID,18.9089,VALID,84,VALID,0.88817,
1999-12-02, 03:05:00,VALID,0,VALID,99.0682,VALID,0.0169808,VALID,18.9121,VALID,86,VALID,0.897098,
1999-12-02, 03:06:00,VALID,0,VALID,99.0618,VALID,0,VALID,18.9191,VALID,83,VALID,0.957491,
1999-12-02, 03:07:00,VALID,0,VALID,99.0758,VALID,0,VALID,18.9089,VALID,85,VALID,0.921875,
1999-12-02, 03:08:00,VALID,0,VALID,99.0949,VALID,-0.101885,VALID,18.9198,VALID,96,VALID,0.75,
1999-12-02, 03:09:00,VALID,0,VALID,99.0796,VALID,-0.101885,VALID,18.9163,VALID,96,VALID,0.841071,
1999-12-02, 03:10:00,VALID,0,VALID,99.0707,VALID,-0.101885,VALID,18.9265,VALID,91,VALID,0.789982,
1999-12-02, 03:11:00,VALID,0,VALID,99.1038,VALID,-0.0849042,VALID,18.9427,VALID,99,VALID,0.741343,
1999-12-02, 03:12:00,VALID,0,VALID,99.105,VALID,-0.101885,VALID,18.9528,VALID,86,VALID,0.938839,
1999-12-02, 03:13:00,VALID,0,VALID,99.0555,VALID,-0.101885,VALID,18.9457,VALID,86,VALID,0.998661,
1999-12-02, 03:14:00,VALID,0,VALID,99.0707,VALID,-0.0849042,VALID,18.9457,VALID,85,VALID,0.918888,
1999-12-02, 03:15:00,VALID,0,VALID,99.0453,VALID,-0.101885,VALID,18.9688,VALID,61,VALID,1.1288,
1999-12-02, 03:16:00,VALID,0,VALID,99.0071,VALID,-0.0509425,VALID,18.9974,VALID,34,VALID,0.794196,
1999-12-02, 03:17:00,VALID,0,VALID,98.9804,VALID,-0.101885,VALID,19.0135,VALID,56,VALID,0.528571,
1999-12-02, 03:18:00,VALID,0,VALID,98.9461,VALID,-0.101885,VALID,19.0168,VALID,62,VALID,0.683364,
1999-12-02, 03:19:00,VALID,0,VALID,98.9041,VALID,-0.101885,VALID,19.0468,VALID,81,VALID,0.206081,
1999-12-02, 03:20:00,VALID,0,VALID,98.8711,VALID,-0.0849042,VALID,19.0332,VALID,84,VALID,0.352455,
1999-12-02, 03:21:00,VALID,0,VALID,98.8456,VALID,-0.0849042,VALID,19.0163,VALID,103,VALID,0,
1999-12-02, 03:22:00,VALID,0,VALID,98.8482,VALID,-0.101885,VALID,19.0235,VALID,103,VALID,0,
1999-12-02, 03:23:00,VALID,0,VALID,98.8494,VALID,0,VALID,19.0121,VALID,32,VALID,0,
1999-12-02, 03:24:00,VALID,0,VALID,98.7465,VALID,0,VALID,19.0384,VALID,338,VALID,0,
1999-12-02, 03:25:00,VALID,0,VALID,98.4832,VALID,-0.0169808,VALID,19.1026,VALID,341,VALID,0,
1999-12-02, 03:26:00,VALID,0,VALID,98.2098,VALID,0,VALID,19.1774,VALID,62,VALID,0,
1999-12-02, 03:27:00,VALID,0,VALID,97.8296,VALID,0,VALID,19.2028,VALID,85,VALID,0.359797,
1999-12-02, 03:28:00,VALID,0,VALID,97.588,VALID,0,VALID,19.2486,VALID,26,VALID,0.782366,
1999-12-02, 03:29:00,VALID,0,VALID,97.4787,VALID,-0.0169808,VALID,19.2682,VALID,18,VALID,0.716518,
1999-12-02, 03:30:00,VALID,0,VALID,97.4647,VALID,0,VALID,19.2675,VALID,338,VALID,0.208869,
1999-12-02, 03:31:00,VALID,0,VALID,97.4494,VALID,0.0169808,VALID,19.2478,VALID,63,VALID,0.0618666,
1999-12-02, 03:32:00,VALID,0,VALID,97.466,VALID,0,VALID,19.2284,VALID,91,VALID,0,
1999-12-02, 03:33:00,VALID,0,VALID,97.5537,VALID,0,VALID,19.1996,VALID,80,VALID,0,
1999-12-02, 03:34:00,VALID,0,VALID,97.7114,VALID,0,VALID,19.1839,VALID,30,VALID,0,
1999-12-02, 03:35:00,VALID,0,VALID,97.8258,VALID,0,VALID,19.161,VALID,10,VALID,0,
1999-12-02, 03:36:00,VALID,0,VALID,97.9046,VALID,0.0169808,VALID,19.171,VALID,333,VALID,0,
1999-12-02, 03:37:00,VALID,0,VALID,97.9784,VALID,0,VALID,19.161,VALID,323,VALID,0,
1999-12-02, 03:38:00,VALID,0,VALID,98.0738,VALID,0.0169808,VALID,19.1608,VALID,323,VALID,0,
1999-12-02, 03:39:00,VALID,0,VALID,98.1831,VALID,0.0169808,VALID,19.1312,VALID,337,VALID,0,
1999-12-02, 03:40:00,VALID,0,VALID,98.351,VALID,0,VALID,19.1222,VALID,86,VALID,0,
1999-12-02, 03:41:00,VALID,0,VALID,98.4514,VALID,0,VALID,19.1158,VALID,105,VALID,0,
1999-12-02, 03:42:00,VALID,0,VALID,98.4896,VALID,0.0339617,VALID,19.0989,VALID,101,VALID,0,
1999-12-02, 03:43:00,VALID,0,VALID,98.4985,VALID,0.0509425,VALID,19.1188,VALID,87,VALID,0,
1999-12-02, 03:44:00,VALID,0,VALID,98.4718,VALID,0.0169808,VALID,19.1155,VALID,7,VALID,0,
1999-12-02, 03:45:00,VALID,0,VALID,98.4858,VALID,0.0169808,VALID,19.0957,VALID,313,VALID,0,
1999-12-02, 03:46:00,VALID,0,VALID,98.4947,VALID,0.0339617,VALID,19.0797,VALID,314,VALID,0,
1999-12-02, 03:47:00,VALID,0,VALID,98.5303,VALID,0.0169808,VALID,19.0797,VALID,314,VALID,0,
1999-12-02, 03:48:00,VALID,0,VALID,98.59,VALID,-0.0169808,VALID,19.0763,VALID,326,VALID,0,
1999-12-02, 03:49:00,VALID,0,VALID,98.632,VALID,0,VALID,19.0671,VALID,328,VALID,0,
1999-12-02, 03:50:00,VALID,0,VALID,98.7032,VALID,0.0339617,VALID,19.0638,VALID,329,VALID,0,
1999-12-02, 03:51:00,VALID,0,VALID,98.7719,VALID,0,VALID,19.0507,VALID,329,VALID,0,
1999-12-02, 03:52:00,VALID,0,VALID,98.8227,VALID,0,VALID,19.0546,VALID,313,VALID,0,
1999-12-02, 03:53:00,VALID,0,VALID,98.8685,VALID,0,VALID,19.0246,VALID,296,VALID,0,
1999-12-02, 03:54:00,VALID,0,VALID,98.8609,VALID,0.0169808,VALID,19.0248,VALID,296,VALID,0,
1999-12-02, 03:55:00,VALID,0,VALID,98.8749,VALID,0,VALID,19.0183,VALID,296,VALID,0,
1999-12-02, 03:56:00,VALID,0,VALID,98.9219,VALID,0,VALID,19.0414,VALID,69,VALID,0,
1999-12-02, 03:57:00,VALID,0,VALID,98.983,VALID,0,VALID,19.038,VALID,93,VALID,0,
1999-12-02, 03:58:00,VALID,0,VALID,98.8266,VALID,0.0169808,VALID,19.0315,VALID,11,VALID,0.819853,
1999-12-02, 03:59:00,VALID,0,VALID,98.4756,VALID,0.0339617,VALID,19.0991,VALID,324,VALID,0.85663,
1999-12-02, 04:00:00,VALID,0,VALID,98.2899,VALID,0,VALID,19.1774,VALID,46,VALID,0.608482,
1999-12-02, 04:01:00,VALID,0,VALID,98.1844,VALID,0.0339617,VALID,19.1633,VALID,79,VALID,0.36183,
1999-12-02, 04:02:00,VALID,0,VALID,98.2315,VALID,0.0339617,VALID,19.1673,VALID,85,VALID,0.00436581,
1999-12-02, 04:03:00,VALID,0,VALID,98.2645,VALID,0.0169808,VALID,19.1449,VALID,85,VALID,0.066723,
1999-12-02, 04:04:00,VALID,0,VALID,98.3039,VALID,0,VALID,19.1183,VALID,133,VALID,0.0337054,
1999-12-02, 04:05:00,VALID,0,VALID,98.3675,VALID,0.0169808,VALID,19.1054,VALID,146,VALID,0.0212054,
1999-12-02, 04:06:00,VALID,0,VALID,98.4336,VALID,0.0169808,VALID,19.0892,VALID,254,VALID,0.102022,
1999-12-02, 04:07:00,VALID,0,VALID,98.4514,VALID,0,VALID,19.08,VALID,291,VALID,0.0109797,
1999-12-02, 04:08:00,VALID,0,VALID,98.5405,VALID,0,VALID,19.0636,VALID,242,VALID,0.000892857,
1999-12-02, 04:09:00,VALID,0,VALID,98.6485,VALID,0,VALID,19.0671,VALID,128,VALID,0.0522321,
1999-12-02, 04:10:00,VALID,0,VALID,98.7439,VALID,0.0169808,VALID,19.0536,VALID,104,VALID,0.205653,
1999-12-02, 04:11:00,VALID,0,VALID,98.7617,VALID,0,VALID,19.0472,VALID,132,VALID,0,
1999-12-02, 04:12:00,VALID,0,VALID,98.7503,VALID,0,VALID,19.025,VALID,125,VALID,0,
1999-12-02, 04:13:00,VALID,0,VALID,98.7706,VALID,0,VALID,19.0024,VALID,122,VALID,0,
1999-12-02, 04:14:00,VALID,0,VALID,98.8126,VALID,-0.0169808,VALID,18.9791,VALID,122,VALID,0,
1999-12-02, 04:15:00,VALID,0,VALID,98.81,VALID,0,VALID,18.9666,VALID,122,VALID,0,
1999-12-02, 04:16:00,VALID,0,VALID,98.8393,VALID,-0.0169808,VALID,18.9472,VALID,122,VALID,0,
1999-12-02, 04:17:00,VALID,0,VALID,98.8863,VALID,0,VALID,18.9375,VALID,122,VALID,0,
1999-12-02, 04:18:00,VALID,0,VALID,98.9118,VALID,0,VALID,18.938,VALID,155,VALID,0,
1999-12-02, 04:19:00,VALID,0,VALID,98.9677,VALID,0,VALID,18.9315,VALID,248,VALID,0,
1999-12-02, 04:20:00,VALID,0,VALID,99.0237,VALID,0,VALID,18.9214,VALID,200,VALID,0,